Wind_Speed
18 18 19 19 21 23 27 28 28 30 34 35 34 33 33 32 31 31 32 33 34 34 33 31 28 26 24 22 20 18 18 20 20 20 21 21 22 23 24 25 25 25 24 23 23 22 22 22 22 21 20 19 18 17 15 15 16 16 15 13 13 12 12 12 12 13 12 12 13 13 14 15 16 15 15 15 16 18 18 17 17 19 22 23 25
18 19 20 19 20 22 26 27 27 28 32 36 36 35 34 34 33 32 32 33 34 35 34 33 31 28 26 24 23 21 19 20 21 21 20 21 21 21 23 23 24 24 24 23 23 22 22 22 22 22 21 20 19 18 17 17 17 17 16 15 14 13 13 13 13 13 13 12 13 13 14 14 15 15 15 15 15 16 17 17 17 19 21 24 26
18 18 19 19 18 20 23 25 26 28 31 35 38 38 38 37 36 34 33 33 34 35 35 35 33 30 28 27 25 24 22 21 22 21 21 21 20 20 21 22 23 23 23 23 22 22 22 22 22 22 21 21 20 19 18 18 18 18 17 16 15 14 14 13 14 14 13 13 13 14 14 14 15 15 15 14 14 15 17 17 17 18 21 24 26
17 18 18 19 18 19 21 23 25 27 31 34 36 41 42 39 38 35 34 34 33 34 36 36 35 33 30 29 27 26 25 24 24 23 22 21 20 20 21 22 23 23 23 23 22 22 22 22 22 22 22 22 21 20 19 19 19 18 18 17 17 16 15 14 14 14 14 14 14 14 14 14 15 16 16 15 14 15 16 17 18 19 20 23 25
17 18 18 19 18 18 19 22 25 26 29 31 30 37 43 40 38 36 34 34 34 34 35 36 36 35 33 31 29 28 27 26 26 24 23 22 21 20 21 21 23 23 23 23 23 23 23 24 24 23 23 22 21 21 20 20 19 19 19 19 18 17 16 15 15 15 15 15 15 15 15 15 16 16 17 16 15 15 16 17 19 19 20 22 24
18 19 19 18 17 18 19 21 24 24 24 26 25 28 38 39 37 36 34 35 34 34 35 36 37 37 35 33 31 29 29 28 27 26 25 24 23 22 21 21 22 23 24 24 24 24 25 25 25 24 24 23 23 22 21 20 20 20 20 20 20 19 17 16 16 16 16 16 16 16 16 16 16 17 17 17 17 16 16 17 19 20 21 22 23
20 19 18 17 17 18 21 21 22 22 21 23 24 24 29 34 35 36 35 35 35 35 35 35 36 37 36 35 33 31 30 30 29 28 27 26 25 24 23 23 23 24 24 25 25 25 26 26 26 25 25 24 24 23 22 21 21 21 21 21 21 20 18 17 17 18 18 17 17 17 17 17 17 18 18 18 18 17 17 17 19 20 21 22 23
21 20 18 17 17 19 22 21 21 22 22 23 25 25 26 29 32 35 37 37 36 35 35 35 35 36 37 37 35 33 32 31 31 30 29 29 28 27 26 25 25 25 24 25 25 26 26 27 27 26 26 25 25 24 23 22 22 22 22 22 22 21 20 18 18 18 19 18 18 17 17 18 18 18 19 19 19 18 18 18 19 20 21 22 23
21 21 20 19 18 19 20 21 21 22 23 23 24 24 26 27 29 34 40 40 39 38 36 35 35 35 37 37 37 36 34 33 32 31 31 31 30 29 28 27 26 26 26 26 27 27 27 27 27 27 27 26 26 25 24 23 24 24 24 24 23 22 21 20 19 19 20 19 18 18 18 18 18 18 19 19 19 19 18 18 19 20 21 22 22
22 22 22 20 20 20 20 21 22 22 23 23 22 23 25 24 25 32 39 39 38 39 38 37 36 36 36 37 37 36 36 35 34 33 33 33 32 30 29 29 28 27 27 28 28 28 28 28 28 28 28 28 27 27 26 25 25 25 25 25 24 24 22 21 20 20 20 20 20 19 19 19 19 19 18 19 19 19 19 19 20 20 21 21 21
24 24 22 22 22 20 20 22 23 22 23 23 23 23 23 21 22 30 37 38 36 37 38 38 37 37 36 36 36 36 37 37 36 36 35 35 33 32 31 30 30 29 29 29 29 29 29 29 29 30 30 30 29 29 28 27 26 26 26 26 26 25 24 23 22 21 21 21 21 20 20 20 20 20 19 19 20 20 20 20 21 21 21 21 20
25 25 24 23 22 21 21 22 23 23 22 23 23 22 22 21 21 25 29 32 32 32 36 39 39 39 37 37 36 36 36 37 38 38 37 37 35 34 33 32 32 31 31 31 31 31 30 30 30 30 30 30 30 29 29 28 27 27 27 27 27 26 26 25 24 22 22 22 22 22 22 22 21 21 20 20 20 21 21 21 21 21 21 20 20
26 26 25 24 23 22 22 23 24 24 23 22 23 22 21 21 21 21 20 23 24 25 30 34 39 40 39 38 37 37 37 36 37 38 39 38 37 36 35 34 34 33 34 33 33 32 32 32 31 31 31 30 30 30 29 29 29 28 28 28 28 27 27 26 25 24 24 23 23 23 23 23 23 22 22 22 22 22 22 21 21 21 20 20 20
25 26 26 26 25 24 24 25 25 25 25 24 23 23 22 21 21 21 19 20 21 22 24 27 34 39 39 39 38 38 38 37 37 38 39 39 39 38 37 36 36 35 35 35 34 34 34 34 33 33 32 32 31 30 30 30 30 29 29 29 29 28 28 27 27 26 26 25 25 24 24 24 24 23 23 23 23 23 23 22 22 21 20 20 20
24 25 25 26 25 25 25 26 26 27 27 26 25 24 23 22 22 22 21 21 21 21 22 24 28 33 37 39 39 40 39 38 37 38 39 39 39 39 38 38 38 38 37 36 36 36 37 36 36 35 35 33 32 32 32 31 31 31 30 30 30 30 29 29 28 28 28 28 27 26 25 25 25 24 24 24 24 24 24 23 23 21 20 20 20
24 24 25 25 24 25 25 26 26 27 27 27 27 25 24 23 24 24 24 24 24 22 23 24 25 28 33 36 40 41 40 39 39 39 39 39 39 39 38 38 38 39 38 38 38 38 39 39 38 38 37 36 35 34 34 33 33 32 32 32 32 32 31 31 30 30 29 29 30 28 27 26 26 26 26 26 25 25 25 24 24 23 21 21 21
24 24 25 24 24 24 25 25 26 26 27 28 27 27 26 25 25 26 26 26 26 25 26 27 27 28 30 33 37 41 42 43 43 42 41 40 39 39 39 38 38 38 38 38 38 39 39 40 40 40 40 39 38 37 36 36 35 34 34 33 33 33 33 33 32 32 31 31 31 31 29 28 28 28 27 27 27 26 26 25 25 24 22 22 22
24 24 25 25 24 24 24 25 25 25 26 27 27 27 27 26 26 27 27 27 28 28 29 30 30 30 31 31 34 37 40 44 45 44 44 43 41 40 39 39 39 38 38 38 38 39 39 40 41 41 41 41 40 39 39 38 38 37 36 35 35 35 35 35 35 34 33 32 31 32 32 30 29 29 29 28 28 28 27 27 26 25 23 23 23
24 24 24 24 24 24 24 24 25 25 26 26 27 27 27 27 26 26 27 27 28 29 30 31 31 32 32 32 33 34 36 41 45 45 45 45 44 43 41 40 40 39 38 38 39 39 39 40 41 41 42 42 41 41 40 40 40 39 38 37 37 36 36 37 37 36 36 34 33 33 33 32 31 31 30 30 29 29 28 27 26 25 24 24 24
24 24 24 24 24 24 24 24 24 24 25 26 26 26 26 26 26 26 27 27 28 28 29 30 30 31 33 32 32 33 33 36 42 45 45 45 46 46 44 43 41 40 40 40 40 40 40 40 40 40 41 41 41 41 41 41 40 40 39 39 38 38 38 38 38 38 37 36 35 34 35 34 32 31 31 30 30 29 28 28 27 26 26 25 24
24 24 24 23 24 24 24 24 24 24 24 25 25 25 26 26 25 26 26 27 27 27 28 29 30 30 32 32 32 33 33 34 37 42 44 45 47 49 48 47 45 42 42 42 42 41 41 41 41 40 40 40 40 41 41 41 40 40 40 40 39 38 38 39 39 38 38 38 37 36 35 34 33 32 31 31 30 29 28 28 27 27 27 26 25
26 25 24 24 24 24 24 24 25 25 25 25 25 25 26 26 26 26 26 27 27 27 27 28 29 29 31 32 33 33 33 34 36 38 41 42 45 49 51 51 49 47 46 46 45 45 44 43 42 41 40 40 40 40 40 40 40 41 42 41 40 39 39 40 40 39 39 39 38 37 36 34 34 33 32 31 30 30 29 29 29 28 28 28 27
27 27 26 25 25 24 24 25 25 25 26 26 26 26 26 27 27 27 27 28 28 28 28 29 30 30 30 31 32 33 33 34 36 37 39 40 40 45 51 53 52 50 49 48 47 47 47 46 45 44 43 42 42 41 40 40 40 41 43 43 42 41 40 40 41 41 40 40 40 39 36 35 34 34 33 32 32 32 32 31 30 30 30 29 28
28 28 28 27 27 26 25 25 26 26 26 27 28 28 28 28 28 29 29 29 30 30 29 30 31 31 31 31 32 33 34 34 35 37 39 39 39 40 46 51 52 51 51 51 49 48 47 46 47 47 47 46 45 44 42 42 42 42 44 44 43 42 42 41 42 42 42 41 41 40 38 36 35 34 34 33 33 34 34 33 33 32 32 31 29
28 28 28 28 28 28 27 27 27 27 27 27 28 29 30 30 30 30 30 30 31 31 31 31 32 32 32 33 33 33 34 35 35 36 38 39 39 39 41 47 52 52 53 53 52 51 49 47 46 46 46 48 48 47 46 45 45 45 46 46 45 44 43 43 43 44 43 43 43 41 40 38 37 35 34 34 34 34 35 34 34 34 34 32 31
29 29 29 29 29 28 29 28 28 28 28 28 28 29 30 31 31 31 31 32 32 32 32 32 33 34 34 35 35 35 35 36 36 37 38 39 40 40 40 44 49 51 53 53 53 53 51 49 50 48 45 46 48 47 47 48 49 49 49 49 48 47 46 46 46 45 44 44 44 42 41 39 38 36 35 35 34 34 34 35 35 35 35 34 32
29 29 30 30 30 30 29 30 29 29 29 29 29 29 30 31 32 32 33 33 33 33 33 33 34 35 36 36 37 37 37 38 39 39 39 40 41 41 42 44 47 49 51 52 53 52 49 49 51 52 50 49 49 49 49 50 52 52 52 51 51 51 51 51 50 48 46 45 44 42 41 40 38 36 35 35 34 34 34 34 35 35 35 35 33
29 29 30 30 31 31 31 32 32 31 31 30 30 30 31 31 32 33 34 34 35 35 35 35 35 36 37 38 38 39 40 40 41 41 41 41 42 42 43 45 47 48 49 52 53 51 49 49 50 50 51 51 52 52 51 50 51 52 52 51 52 53 54 54 53 51 48 46 45 43 42 41 39 37 37 36 35 34 34 34 34 35 35 35 34
30 30 31 31 32 33 33 34 35 35 34 34 33 33 33 33 34 34 35 36 37 38 37 38 38 38 38 39 39 41 42 42 43 43 43 44 44 44 45 46 48 49 50 51 53 52 51 51 50 49 49 50 50 50 49 48 48 48 48 46 45 46 47 49 51 52 51 48 46 45 43 42 41 39 39 38 37 36 35 34 34 34 35 34 34
31 31 32 33 33 34 34 35 36 37 37 37 37 37 36 37 37 37 37 37 38 39 40 41 41 41 41 41 41 42 43 44 44 45 46 46 47 46 46 47 49 50 51 52 52 52 52 53 52 51 51 51 50 48 48 48 47 47 46 44 41 40 39 40 43 47 50 51 50 49 47 45 43 42 41 41 39 38 37 36 35 35 35 34 34
32 32 33 34 34 35 35 36 37 37 38 38 39 39 39 39 39 40 40 39 39 40 41 42 43 43 44 44 44 44 44 45 45 47 47 48 49 49 49 49 50 51 52 53 53 51 51 53 53 53 54 54 53 51 49 48 48 48 48 47 46 48 46 43 41 42 44 47 49 50 49 48 46 45 44 43 42 40 39 38 37 36 36 35 35
33 34 35 36 36 37 38 38 38 38 39 39 40 40 41 41 41 42 42 42 42 41 41 42 43 44 45 46 46 46 46 46 47 48 49 50 51 51 52 52 51 52 53 54 54 52 50 52 53 53 55 56 55 55 53 51 51 51 50 49 51 54 55 53 51 48 46 46 46 46 47 47 46 45 45 46 45 43 42 41 39 38 38 37 37
33 34 35 36 37 38 39 39 40 40 40 41 42 42 43 43 44 44 44 44 44 44 44 44 44 44 45 46 47 48 48 48 48 49 50 51 52 53 54 54 53 53 54 55 55 54 51 51 53 53 54 56 56 56 55 54 54 54 54 52 52 55 57 56 57 56 53 52 51 50 49 48 46 44 44 45 46 46 45 43 42 41 40 39 39
32 33 34 35 36 37 38 39 40 41 42 42 43 44 45 45 46 46 46 46 46 46 46 46 46 46 46 46 47 49 50 50 50 51 51 52 53 54 55 56 55 55 56 56 57 56 52 51 53 54 55 57 56 55 55 55 56 56 56 55 54 54 55 55 56 56 54 53 53 52 52 51 49 46 45 46 47 47 46 46 45 43 42 41 41
32 33 34 35 36 37 38 39 40 41 42 43 44 45 46 47 48 49 49 49 49 49 48 48 49 49 49 48 48 49 50 52 53 53 54 54 54 55 55 56 57 57 57 58 58 58 55 52 53 55 55 57 57 56 55 55 56 56 56 55 54 54 54 55 54 53 51 49 49 50 50 49 49 48 47 48 48 47 47 48 47 46 45 44 42
33 34 35 36 37 37 38 39 41 42 43 44 45 46 47 48 49 50 51 51 52 52 51 51 51 51 52 51 51 51 51 52 54 55 56 56 56 56 56 57 58 58 58 59 59 59 58 55 54 56 56 57 57 57 56 55 55 55 55 55 55 55 54 55 54 52 50 47 45 46 45 44 46 47 45 45 46 47 48 48 49 48 47 47 46
35 36 36 36 37 37 38 39 40 41 42 44 45 46 47 48 49 50 51 52 53 53 53 54 54 53 53 53 53 54 54 53 54 55 57 58 59 59 58 58 59 59 59 60 60 60 60 57 55 56 57 58 58 58 57 56 55 55 54 53 54 56 55 55 54 52 50 48 44 44 45 44 44 44 41 40 41 43 46 47 48 49 48 49 49
37 37 37 37 37 38 38 39 39 40 41 42 43 44 45 46 48 49 50 51 52 53 54 54 55 55 55 55 54 55 56 55 55 55 57 59 60 61 61 60 60 60 60 60 61 61 61 60 57 56 57 58 59 59 58 56 56 55 54 53 53 54 54 54 54 52 51 50 47 47 48 45 42 41 38 35 35 35 37 40 43 46 48 49 50
38 38 37 37 38 38 38 39 39 39 40 41 41 42 43 44 46 47 49 50 51 53 53 54 55 56 56 57 56 56 56 57 57 57 57 58 60 61 62 62 62 62 61 61 61 61 62 62 59 57 56 57 58 59 58 58 57 56 55 53 51 50 50 51 52 52 53 53 51 51 51 46 41 41 40 36 33 32 32 33 36 40 42 44 46
39 39 38 38 38 39 38 39 39 39 40 41 42 42 43 45 46 47 48 49 50 51 53 53 54 55 56 57 57 57 57 57 57 58 58 58 59 60 62 63 63 63 62 62 62 62 62 62 61 59 57 57 58 59 59 59 59 57 54 52 50 50 50 50 52 52 54 55 55 54 53 50 44 43 44 41 37 34 33 33 33 34 36 38 40
39 39 39 39 39 39 39 39 40 40 40 40 41 42 44 45 47 48 49 50 50 51 52 53 54 55 56 56 57 57 57 58 58 58 58 59 59 60 61 63 64 64 63 63 63 63 63 63 61 60 58 57 58 58 59 59 59 57 55 54 52 50 50 50 51 51 52 54 56 55 55 53 49 47 47 45 42 39 37 36 35 35 35 36 37
40 40 40 40 39 40 40 40 40 39 39 39 40 42 43 45 46 48 50 51 52 53 53 53 54 55 56 57 57 58 58 58 58 59 59 60 60 60 60 62 64 64 64 64 63 63 64 63 62 60 58 58 57 57 58 59 58 58 57 56 52 49 49 49 48 48 49 50 53 54 54 54 53 51 49 48 45 41 38 38 39 39 38 37 37
41 41 40 40 40 40 40 41 41 40 40 41 42 43 45 46 48 49 50 52 53 55 55 55 55 55 56 57 58 58 58 59 59 59 60 60 61 61 61 61 63 64 65 65 64 64 64 64 63 61 59 58 57 57 57 58 58 57 57 56 53 50 48 47 45 44 44 46 48 51 53 54 54 53 51 48 44 39 38 40 41 41 40 39 38
42 42 40 40 40 40 41 42 42 42 42 44 46 47 48 50 51 52 53 54 54 56 57 57 57 57 58 58 58 59 59 59 60 60 60 61 61 62 62 62 62 63 65 65 65 64 64 64 64 62 60 58 56 56 56 56 56 56 56 56 55 51 48 46 43 41 41 42 44 48 51 52 52 52 50 47 43 41 42 43 43 43 43 41 40
42 41 40 40 40 42 43 43 43 43 45 48 50 51 52 53 55 56 57 58 57 57 57 58 59 59 59 60 60 60 60 61 61 61 62 62 62 63 63 63 63 63 64 65 66 65 65 65 65 63 61 59 57 55 55 55 55 55 56 56 54 51 49 48 46 43 42 43 45 47 49 49 49 49 48 46 45 44 43 44 45 45 44 43 42
42 41 41 40 41 43 43 43 44 45 48 50 52 54 54 55 57 59 61 63 61 59 58 59 59 60 61 61 61 61 61 62 62 63 63 63 63 64 64 64 64 63 64 65 66 66 65 66 65 64 61 61 59 56 55 56 56 55 55 55 55 53 51 51 50 47 44 44 48 51 50 47 46 46 46 46 45 43 41 42 45 45 45 44 43
42 41 41 42 43 44 44 45 46 48 50 52 54 56 57 58 59 61 64 65 63 61 60 60 60 61 61 61 61 61 61 61 62 63 65 65 65 65 65 65 64 64 64 64 65 66 66 66 66 64 62 61 60 58 56 56 56 54 54 55 56 56 54 54 54 52 50 49 50 50 49 47 45 45 45 46 45 44 43 43 44 44 45 45 43
42 42 42 43 44 45 46 47 48 50 52 54 56 58 59 61 62 64 65 64 62 61 60 61 61 62 62 62 62 62 61 61 62 63 64 65 66 66 66 65 65 65 64 64 65 66 67 66 66 65 63 61 61 60 58 57 56 55 55 55 55 56 55 54 54 53 53 53 52 49 47 46 45 44 44 45 45 45 44 42 41 43 45 44 42
43 43 43 44 45 46 47 48 49 51 53 55 58 60 61 63 64 65 63 61 61 60 60 61 61 61 61 62 62 62 62 62 62 62 63 64 65 66 66 66 66 65 64 65 66 66 67 67 66 65 64 62 62 61 60 59 57 57 57 56 54 54 53 53 53 51 49 50 51 50 48 45 44 44 43 44 46 47 46 43 41 43 45 44 42
43 43 44 45 46 47 48 49 50 52 54 56 59 61 63 64 64 63 61 60 60 59 58 57 56 56 57 57 58 59 60 61 62 62 63 64 65 65 65 66 66 65 64 65 66 66 67 68 67 65 64 63 62 62 61 60 59 58 59 57 53 52 52 52 53 52 51 49 49 49 48 46 45 44 44 44 45 47 47 44 42 43 46 44 42
44 44 45 46 47 48 49 50 52 54 55 58 61 63 64 64 63 61 60 58 57 55 54 53 52 53 53 54 55 57 58 59 60 61 62 63 64 64 64 65 65 64 64 66 66 66 67 68 67 66 65 63 63 62 62 61 60 59 58 57 54 53 52 51 51 52 53 50 48 47 47 47 47 48 47 46 46 46 47 45 44 45 46 45 43
Wind_Direction
258 256 252 249 247 242 236 232 232 232 227 224 225 223 223 222 221 221 221 220 220 222 224 224 222 217 213 214 216 218 225 232 233 232 232 231 230 232 233 233 234 235 235 236 236 235 235 235 236 238 240 242 244 247 251 255 261 267 273 280 287 293 300 304 307 311 318 324 328 333 339 344 348 353 357 358 358 357 357 357 356 356 357 357 355
259 257 256 253 250 245 240 234 233 234 228 223 224 224 223 222 222 221 221 222 222 223 225 225 224 221 217 214 214 216 221 230 235 234 232 231 231 231 232 233 232 232 234 235 236 237 236 236 236 238 240 242 244 247 250 254 259 265 270 276 282 289 295 299 302 306 311 316 319 325 333 339 343 347 351 353 353 352 352 351 351 352 353 354 354
260 258 258 256 253 247 241 236 234 234 230 226 224 223 222 221 221 221 221 221 222 223 225 227 226 224 221 218 215 214 217 223 231 234 234 233 232 232 231 232 231 229 231 233 235 236 236 235 236 238 240 242 245 247 249 253 258 263 268 272 277 283 289 294 297 300 304 308 312 318 328 335 339 343 346 348 348 346 345 345 345 346 348 351 354
259 256 257 256 253 248 242 238 236 234 233 230 228 225 222 219 218 220 222 221 221 222 225 227 228 227 224 222 219 217 216 219 224 229 234 236 235 235 232 232 232 231 231 232 234 235 235 235 235 237 240 243 244 246 249 252 257 261 265 269 273 278 283 289 293 297 299 301 306 313 324 332 336 340 343 343 342 340 338 338 339 340 343 347 351
257 252 253 254 252 249 242 239 237 237 235 234 235 230 223 220 218 218 221 223 221 221 224 226 228 229 227 225 224 221 220 220 223 226 230 234 234 236 236 234 234 234 233 234 235 235 235 236 235 236 238 241 244 245 248 252 255 260 264 268 270 274 279 284 289 294 296 298 302 310 320 328 333 337 340 340 338 335 333 331 332 334 336 340 345
257 252 251 252 251 249 243 239 237 237 237 235 239 234 224 222 222 219 220 224 223 221 224 226 227 229 228 227 226 225 223 223 225 227 229 231 232 234 236 237 237 237 237 236 237 237 237 237 237 237 237 240 242 245 247 250 254 258 263 266 268 272 275 280 285 290 293 295 299 307 316 323 329 334 337 338 335 332 329 327 327 329 331 334 338
257 254 252 251 249 247 244 240 235 234 235 235 235 232 226 224 224 223 223 224 225 224 225 227 228 229 229 229 227 226 225 225 226 228 229 231 231 231 233 237 239 239 240 240 240 240 239 239 239 239 239 240 242 244 247 250 253 256 261 265 268 271 273 275 280 286 288 291 296 304 312 318 324 331 335 336 334 331 327 324 324 326 328 330 333
256 256 254 251 247 246 246 244 238 234 237 238 234 230 229 228 228 229 228 226 226 226 226 227 229 230 230 230 229 227 225 225 226 228 230 232 233 231 230 233 237 240 241 242 243 243 242 241 241 242 243 244 244 245 247 250 253 256 260 263 267 270 272 273 276 280 285 289 294 300 307 313 319 326 332 334 333 331 327 324 323 323 324 327 329
252 254 252 250 247 244 246 247 243 239 239 240 237 233 232 234 237 235 232 230 228 228 227 227 228 230 231 231 229 228 227 226 226 228 230 232 234 234 233 233 235 238 241 243 244 245 245 245 246 246 247 248 248 248 248 250 254 257 259 262 265 268 270 272 273 277 282 288 292 297 302 307 314 321 328 330 330 330 329 326 324 323 323 324 326
248 249 248 247 246 244 245 245 244 242 241 241 239 237 237 241 244 234 229 230 229 227 228 228 228 229 231 232 230 229 228 228 227 227 230 232 234 236 237 237 237 238 241 244 246 247 248 249 249 250 251 251 251 251 251 251 253 257 259 261 264 267 270 271 272 275 280 285 289 293 298 302 309 316 322 325 326 327 328 327 325 323 322 322 324
247 247 245 243 243 245 245 245 244 242 242 242 242 243 243 245 239 224 223 228 230 229 230 231 231 230 231 232 231 231 230 230 229 228 229 231 233 235 237 240 240 241 242 244 247 249 250 252 253 253 254 255 255 256 256 256 256 257 260 262 264 267 270 271 272 275 279 283 287 291 295 299 305 310 315 318 320 323 324 325 324 322 322 322 323
248 246 245 242 241 242 244 244 245 245 245 245 246 247 246 244 235 220 218 224 227 229 232 233 232 231 230 231 231 231 230 230 231 231 231 231 232 234 236 239 241 243 244 246 248 250 252 253 255 256 257 258 259 260 261 261 261 261 262 264 266 268 270 273 274 277 279 282 286 290 294 297 301 305 309 312 315 318 319 321 322 321 321 322 321
249 247 246 245 243 241 241 242 244 245 246 246 248 248 247 246 242 233 225 222 223 227 232 234 231 229 229 231 232 232 231 230 231 232 233 233 233 233 235 237 240 243 245 248 250 252 253 255 256 257 258 259 260 261 262 263 264 263 264 265 267 269 271 274 276 277 279 281 285 289 293 296 299 302 305 308 311 313 315 316 317 318 319 319 316
247 247 246 245 243 240 240 241 242 244 244 243 244 246 249 250 248 246 241 235 232 232 236 237 233 229 229 230 233 235 234 233 232 233 234 235 235 234 234 236 239 242 245 248 251 254 255 256 257 257 258 259 260 261 262 262 264 264 265 266 267 269 270 272 274 276 277 280 283 287 291 294 296 298 301 304 306 309 311 312 312 314 315 314 312
245 244 243 243 242 241 240 240 241 244 246 246 245 247 251 253 252 250 246 244 244 241 241 240 236 233 232 232 235 237 238 237 236 236 236 236 237 236 235 235 237 240 242 245 249 252 254 256 257 257 257 257 258 259 260 261 262 263 265 266 268 268 269 270 272 274 276 279 282 285 288 290 292 294 297 299 302 305 306 307 308 308 309 309 308
244 244 243 241 240 240 240 240 241 243 247 249 249 250 249 250 251 251 248 246 246 246 245 244 239 236 235 236 238 239 239 241 241 240 239 238 238 238 238 237 237 238 240 242 245 248 251 254 256 257 257 257 256 256 257 259 260 261 263 265 266 268 269 270 271 272 274 277 280 283 285 287 289 291 293 296 298 300 302 302 303 303 303 303 302
244 245 244 242 239 238 239 240 240 241 244 247 249 249 247 246 246 248 248 248 246 245 244 244 243 241 238 238 241 241 239 241 242 243 243 242 240 240 240 240 239 239 240 242 243 245 248 251 253 255 256 257 256 256 256 257 258 259 261 263 265 267 269 270 270 271 273 275 278 281 283 285 287 289 290 292 294 296 298 298 298 299 298 297 296
246 245 245 245 242 239 237 238 239 239 240 243 246 248 247 246 246 246 247 247 247 245 243 243 243 243 242 239 241 243 240 239 241 243 244 245 244 242 241 241 241 241 242 243 244 244 246 248 250 251 253 254 255 256 257 258 259 259 260 261 263 265 268 269 270 271 271 273 276 279 281 282 284 286 288 289 291 292 293 294 295 296 295 293 293
248 247 246 247 246 244 240 238 238 239 240 241 243 246 247 248 248 248 248 248 247 247 246 246 244 243 245 243 242 244 242 239 239 241 243 244 246 246 244 242 241 241 242 244 245 245 245 246 247 249 250 252 254 255 256 258 259 260 260 261 262 263 265 267 269 270 272 272 273 275 278 280 282 283 285 286 288 289 290 291 292 293 293 292 291
250 249 248 248 248 248 247 244 241 240 241 242 243 245 246 247 249 249 250 250 250 250 250 251 249 248 249 248 246 246 246 243 240 240 242 242 243 245 245 244 242 241 241 242 244 245 246 246 247 248 250 252 254 255 256 257 258 260 261 261 262 262 264 265 267 269 271 272 272 273 275 278 280 281 282 284 285 286 288 289 290 291 291 291 291
252 251 250 249 249 249 250 250 249 247 246 246 247 248 249 249 249 250 251 252 252 253 253 254 254 252 252 252 250 248 248 247 244 242 243 244 243 243 243 244 244 243 242 242 243 244 245 246 247 248 249 251 253 255 256 258 260 261 261 261 261 261 262 264 265 267 269 270 271 271 272 275 278 279 280 282 283 285 286 288 289 289 289 289 290
255 254 252 251 250 249 250 250 252 252 252 252 252 252 253 254 254 253 253 254 254 255 255 256 256 255 254 255 254 252 249 248 246 245 246 247 245 242 241 242 243 243 244 244 245 245 245 245 246 246 247 249 251 253 255 257 260 261 262 262 261 261 261 262 264 265 266 268 269 270 271 272 275 277 279 281 283 284 285 286 287 287 287 288 289
261 260 258 256 254 252 251 250 250 251 252 254 254 254 254 255 256 256 255 255 255 255 255 256 257 256 256 255 256 255 253 250 249 248 249 250 248 242 239 241 242 243 245 246 246 246 247 246 247 247 247 248 249 250 252 255 257 259 261 262 262 262 262 263 264 264 265 266 268 269 270 271 272 275 277 279 281 282 283 284 285 285 285 286 288
263 264 264 264 262 260 257 255 253 252 251 252 253 254 254 254 255 255 256 256 256 256 255 256 257 257 257 257 257 257 256 254 252 251 251 251 251 246 240 240 242 243 245 247 246 247 248 248 249 250 249 249 249 250 250 252 253 255 257 259 261 262 262 263 264 265 265 266 267 268 270 270 271 273 276 277 279 281 282 282 282 283 283 284 286
261 263 265 266 267 266 265 263 260 257 255 253 253 253 254 255 255 254 255 255 256 257 257 257 258 258 259 259 258 258 258 258 256 254 254 252 252 251 245 242 243 244 246 248 249 248 249 249 250 252 252 251 250 251 251 252 252 253 255 257 258 259 261 261 262 263 265 266 267 269 270 271 271 272 274 275 278 280 281 282 282 281 281 282 283
262 262 263 264 265 266 267 266 265 262 260 257 255 253 253 254 256 256 255 255 256 256 257 258 259 260 260 260 260 259 259 259 258 257 256 255 253 252 249 245 245 245 248 250 251 251 250 250 251 252 252 251 250 251 253 254 254 254 256 257 257 258 259 260 260 261 262 264 266 268 270 271 271 272 273 275 277 279 281 282 282 281 281 281 281
263 263 262 262 262 262 263 264 264 264 263 261 258 256 254 254 254 256 257 257 257 258 258 258 259 260 261 261 262 261 260 260 259 259 257 257 256 254 252 250 248 247 248 251 252 253 253 253 253 253 252 250 249 252 254 256 256 255 256 258 258 258 258 259 259 259 260 262 264 266 268 269 270 272 273 275 276 278 280 282 282 281 281 280 280
262 262 262 262 261 261 261 261 261 261 262 262 262 260 258 257 256 256 257 258 259 259 260 261 261 261 261 262 263 263 262 262 261 261 260 258 257 256 255 254 253 251 250 251 253 254 254 254 254 255 255 253 251 252 255 256 256 255 255 258 259 259 258 258 258 257 258 259 261 263 264 266 268 270 272 273 274 276 278 280 281 281 281 280 280
260 261 262 262 262 262 262 262 261 261 260 260 261 261 261 261 260 259 259 259 260 260 261 262 263 263 263 263 263 263 264 263 263 263 262 261 259 257 256 256 256 255 253 253 253 254 254 254 254 254 256 255 252 251 253 254 254 253 253 256 259 259 258 258 257 255 256 257 258 260 261 263 265 267 268 270 272 273 275 277 278 279 279 279 280
260 260 261 262 263 264 264 264 264 264 263 263 262 262 262 262 261 261 260 261 261 262 262 263 263 264 264 264 263 263 263 263 264 263 263 262 261 260 258 256 256 257 256 255 254 254 254 254 254 253 253 254 252 250 250 252 252 251 251 253 256 258 259 261 260 256 255 256 258 258 259 260 262 264 266 267 268 270 272 273 274 275 276 277 278
260 260 261 261 262 264 265 266 267 267 267 267 266 266 265 264 263 262 261 260 260 261 262 263 264 264 264 265 265 264 263 263 263 263 263 263 263 262 260 259 257 257 257 257 256 255 255 254 254 253 252 253 253 251 249 250 251 251 251 251 254 257 259 261 262 260 258 259 259 260 260 261 261 262 263 264 265 267 268 270 271 272 272 273 275
261 261 262 262 263 264 265 267 268 268 269 268 268 267 267 265 265 263 262 262 261 261 261 262 263 264 265 265 266 265 264 263 263 263 263 263 263 263 263 261 260 259 258 258 257 256 256 256 255 255 254 253 253 252 251 250 250 251 252 252 253 256 258 259 260 261 261 262 263 262 262 262 263 262 262 262 263 264 265 267 268 268 269 270 271
264 264 264 265 265 266 266 267 268 269 269 269 269 268 268 267 266 266 265 264 263 263 262 262 261 262 263 265 267 267 266 265 264 263 263 263 263 263 263 263 262 261 260 259 258 256 255 257 257 256 255 255 254 254 253 252 251 250 252 253 252 254 257 259 259 259 261 263 264 264 263 263 263 263 263 262 262 262 263 263 265 266 266 267 269
267 268 268 268 268 268 268 269 269 269 269 269 270 269 269 269 268 268 267 266 266 265 265 264 263 262 262 262 264 266 267 267 266 265 263 262 262 262 263 263 263 263 262 261 260 258 256 255 256 256 256 256 256 255 254 254 253 252 252 252 252 253 256 259 259 258 260 262 264 266 265 262 261 263 264 264 263 262 262 262 263 264 265 266 267
272 272 272 271 271 271 271 271 270 270 270 270 270 270 270 270 270 270 269 269 268 268 267 267 266 265 264 262 261 262 263 265 266 266 264 263 262 262 262 262 262 263 263 262 262 261 258 256 256 256 256 257 257 256 255 254 254 253 253 252 252 251 253 257 258 258 259 261 267 270 267 262 261 262 264 264 263 262 261 261 262 262 263 264 265
278 277 277 275 275 274 273 273 273 273 273 272 272 272 272 271 271 271 271 270 270 269 268 268 267 266 266 265 263 261 261 261 262 264 264 263 262 261 261 261 261 262 262 263 262 262 260 258 256 257 257 257 257 257 256 255 254 253 253 252 252 251 251 253 255 257 259 262 268 271 267 264 263 263 265 267 265 263 262 262 262 262 262 263 264
281 281 280 279 278 278 277 277 276 276 276 275 275 275 274 273 273 272 271 271 270 270 270 269 267 266 266 265 265 264 262 260 259 259 261 262 262 262 261 260 260 260 260 261 262 262 262 260 257 257 258 258 258 257 257 256 255 254 253 252 251 251 251 251 253 256 258 260 264 265 262 261 263 263 264 266 267 265 264 263 262 261 261 263 263
282 283 282 282 281 281 281 281 280 280 279 279 279 278 278 277 276 275 273 272 271 270 270 269 268 267 266 265 264 264 263 261 259 257 257 258 260 261 261 260 260 259 259 260 260 261 262 261 259 257 257 258 259 258 258 257 256 255 254 252 251 251 251 251 252 253 254 254 256 257 255 255 257 260 260 261 265 268 267 265 263 261 261 263 264
282 284 283 283 283 283 283 282 282 283 282 282 282 282 281 281 280 278 277 275 273 272 271 270 269 268 267 266 265 264 263 262 260 258 256 256 256 258 259 259 259 259 259 259 259 260 260 260 260 258 256 257 258 258 258 258 258 256 255 254 252 252 252 252 251 250 250 249 249 251 251 248 250 257 259 260 263 267 270 269 268 266 265 266 267
280 283 282 282 283 282 282 283 283 283 284 284 284 284 284 283 282 282 281 279 277 276 274 272 270 269 268 267 266 265 263 262 261 259 258 256 255 255 256 257 258 258 258 258 258 259 259 259 260 259 257 256 256 256 257 258 259 258 257 255 253 251 250 249 249 248 247 247 246 248 248 244 245 252 257 261 263 265 267 270 270 270 270 270 270
278 280 280 280 281 281 281 282 283 284 285 285 285 285 285 284 284 283 282 281 280 279 277 275 273 271 269 268 267 266 264 263 262 260 259 257 255 254 254 255 256 256 257 257 257 258 258 259 259 259 258 257 256 256 256 257 258 258 257 256 254 252 250 250 249 249 248 247 246 247 248 246 245 249 254 259 262 264 266 269 271 271 271 271 273
275 277 277 277 278 279 280 282 282 282 283 285 286 287 287 287 287 286 284 283 281 280 278 277 275 274 272 270 268 267 266 264 263 261 260 259 257 255 253 253 254 254 255 256 256 257 257 257 258 258 257 257 257 256 256 256 256 256 257 257 254 253 252 251 250 250 250 250 249 249 250 249 249 250 252 255 258 261 265 268 270 271 270 270 272
272 273 273 274 276 277 279 280 280 279 281 285 287 289 290 290 290 289 288 286 284 281 279 277 276 274 273 271 270 268 267 265 264 263 261 260 259 257 255 254 253 253 254 254 254 255 255 256 257 257 257 256 256 256 256 255 255 255 256 256 255 253 251 249 248 249 250 253 253 251 251 250 250 249 250 252 254 255 258 263 267 269 269 269 272
268 269 270 272 275 276 277 279 277 276 280 284 287 289 290 291 291 292 292 291 288 284 281 278 276 274 273 271 270 268 267 265 265 264 262 261 260 259 257 255 254 253 253 253 253 253 254 254 254 255 256 256 255 255 256 255 255 254 254 254 254 252 248 245 245 244 245 248 252 254 252 250 249 249 248 250 250 248 250 255 261 266 266 268 271
265 266 268 271 273 274 276 277 275 275 279 284 286 287 289 290 291 292 293 294 291 288 283 280 277 275 273 271 270 268 267 265 264 263 262 261 260 259 258 257 255 254 253 253 253 253 253 253 253 253 254 255 254 254 254 254 253 253 252 252 252 250 246 242 241 239 239 241 246 251 253 251 249 249 248 248 248 248 249 252 256 261 264 267 270
262 264 268 270 271 273 275 276 275 277 281 284 285 287 288 290 291 292 294 294 292 288 285 282 279 277 274 272 270 269 267 265 264 263 262 261 260 259 258 257 256 255 253 253 253 253 252 252 252 251 251 253 253 252 252 253 253 252 251 250 249 247 243 239 237 236 238 242 245 248 251 252 251 249 247 245 245 246 249 252 254 257 262 266 268
261 264 267 269 270 272 273 274 277 280 282 284 285 287 289 290 291 293 294 293 289 286 284 282 280 278 276 274 272 270 268 266 265 263 262 261 260 259 258 257 256 255 254 253 253 253 252 252 251 250 249 250 251 251 251 251 252 251 250 249 248 246 244 241 238 236 236 240 245 248 250 250 249 248 246 243 242 242 244 248 253 256 260 263 266
261 264 267 269 271 272 273 275 278 281 283 284 286 288 290 291 292 293 293 291 286 284 282 281 280 279 277 275 273 271 269 268 266 264 262 261 259 259 258 257 256 255 254 254 254 253 252 251 251 250 249 248 249 249 249 249 250 250 249 248 248 247 245 243 242 241 240 240 245 249 249 246 245 245 244 242 241 241 242 246 253 257 258 259 263
263 266 268 271 272 273 275 277 279 282 283 285 287 289 290 291 291 291 290 288 284 283 281 281 279 278 277 275 274 272 270 268 266 264 262 261 259 258 257 256 256 254 254 254 254 253 252 252 250 250 249 248 247 247 247 248 248 248 248 248 247 247 247 244 242 243 243 241 243 246 246 244 242 244 244 243 241 241 242 245 251 255 257 258 261
266 268 270 272 274 275 277 279 281 283 285 287 288 290 291 291 291 289 287 286 285 283 282 281 279 278 276 275 274 272 270 268 266 264 262 261 259 258 257 256 255 255 253 253 253 253 253 252 250 249 248 248 246 245 245 246 246 247 248 248 246 246 246 244 242 242 241 240 242 245 246 246 245 245 246 246 244 243 244 244 248 253 255 257 259
268 270 272 273 275 277 279 281 282 284 286 288 289 291 291 291 290 289 288 287 286 283 282 280 279 277 276 274 273 271 269 268 266 265 263 261 260 258 256 255 254 254 253 253 252 251 252 252 250 249 248 247 246 245 244 244 244 245 246 247 246 245 244 244 244 243 241 241 243 247 248 247 246 246 246 246 246 246 246 245 248 252 254 256 258
Height
5817 5817 5818 5819 5819 5820 5820 5821 5822 5823 5825 5826 5828 5829 5831 5832 5833 5833 5834 5835 5836 5837 5839 5840 5842 5844 5846 5847 5849 5852 5852 5852 5852 5853 5854 5855 5856 5857 5857 5858 5859 5860 5861 5862 5863 5864 5865 5866 5867 5868 5869 5870 5871 5871 5872 5872 5872 5872 5873 5873 5873 5873 5873 5873 5873 5873 5873 5873 5872 5872 5871 5870 5870 5869 5868 5866 5865 5864 5863 5861 5860 5859 5857 5856 5855
5815 5815 5816 5817 5817 5817 5818 5819 5820 5821 5822 5823 5825 5827 5828 5829 5830 5831 5832 5833 5834 5836 5837 5838 5840 5842 5844 5845 5847 5849 5851 5851 5851 5852 5853 5854 5855 5855 5856 5857 5858 5859 5860 5861 5862 5862 5863 5864 5865 5866 5867 5868 5869 5870 5871 5871 5871 5871 5872 5872 5872 5872 5872 5872 5872 5872 5872 5872 5871 5871 5871 5870 5869 5868 5867 5866 5865 5864 5863 5861 5860 5859 5857 5856 5854
5813 5814 5814 5814 5815 5815 5815 5816 5817 5818 5818 5820 5821 5823 5825 5826 5827 5828 5829 5831 5832 5833 5835 5836 5838 5840 5842 5844 5845 5846 5848 5849 5850 5850 5851 5852 5853 5854 5855 5855 5856 5857 5858 5859 5860 5860 5861 5862 5863 5864 5865 5866 5867 5868 5869 5869 5869 5869 5870 5870 5870 5871 5871 5871 5871 5871 5871 5870 5870 5870 5870 5869 5869 5868 5867 5866 5865 5864 5863 5861 5860 5858 5857 5855 5854
5811 5812 5812 5812 5812 5812 5813 5813 5814 5815 5816 5817 5818 5820 5821 5822 5823 5825 5827 5828 5829 5831 5832 5834 5836 5838 5840 5842 5843 5845 5846 5847 5847 5848 5849 5851 5852 5853 5854 5854 5855 5856 5856 5857 5858 5858 5859 5860 5861 5862 5863 5864 5865 5866 5867 5867 5867 5868 5868 5868 5869 5869 5869 5869 5869 5869 5869 5869 5869 5869 5869 5868 5868 5867 5866 5865 5864 5863 5862 5861 5859 5858 5857 5855 5853
5809 5809 5809 5809 5809 5810 5811 5811 5811 5812 5813 5814 5815 5816 5817 5819 5820 5822 5824 5825 5826 5828 5829 5831 5833 5835 5837 5840 5842 5843 5844 5845 5846 5846 5847 5848 5850 5851 5852 5853 5853 5854 5855 5855 5856 5857 5857 5858 5859 5860 5861 5862 5863 5864 5864 5865 5866 5866 5866 5867 5867 5867 5868 5868 5868 5868 5868 5868 5868 5868 5868 5867 5867 5866 5865 5865 5864 5863 5862 5860 5859 5858 5856 5855 5853
5806 5806 5807 5807 5808 5808 5809 5809 5809 5810 5811 5812 5813 5813 5815 5817 5818 5819 5821 5822 5823 5825 5826 5828 5830 5831 5834 5837 5839 5841 5843 5844 5844 5845 5845 5846 5847 5849 5850 5851 5851 5852 5853 5854 5854 5855 5855 5855 5856 5857 5858 5859 5860 5861 5862 5863 5864 5864 5864 5865 5865 5866 5866 5866 5866 5866 5866 5867 5867 5867 5867 5866 5866 5865 5864 5864 5863 5862 5861 5860 5858 5857 5855 5854 5853
5803 5803 5804 5805 5805 5806 5806 5807 5807 5808 5809 5810 5810 5811 5812 5814 5815 5817 5818 5819 5821 5822 5824 5826 5827 5829 5831 5833 5836 5838 5840 5842 5842 5843 5843 5844 5845 5846 5847 5848 5849 5850 5851 5852 5852 5853 5853 5853 5854 5855 5856 5857 5858 5859 5860 5861 5862 5862 5863 5863 5863 5864 5864 5865 5865 5865 5865 5865 5865 5865 5865 5865 5865 5864 5863 5863 5862 5861 5860 5859 5857 5856 5855 5853 5852
5800 5801 5801 5802 5803 5803 5803 5804 5806 5807 5807 5807 5808 5808 5809 5810 5812 5814 5815 5816 5818 5820 5822 5824 5825 5827 5828 5830 5833 5835 5837 5839 5840 5841 5841 5842 5842 5843 5845 5846 5847 5848 5849 5850 5850 5851 5851 5851 5852 5853 5854 5855 5856 5857 5859 5859 5860 5860 5861 5861 5861 5862 5862 5863 5863 5863 5863 5863 5864 5864 5864 5864 5863 5863 5862 5861 5861 5860 5859 5858 5856 5855 5854 5852 5851
5798 5798 5798 5799 5800 5801 5801 5802 5803 5804 5805 5805 5805 5806 5806 5807 5809 5810 5811 5813 5815 5817 5819 5821 5822 5824 5825 5827 5829 5831 5833 5835 5837 5838 5839 5840 5840 5841 5842 5844 5845 5846 5847 5847 5848 5849 5849 5850 5850 5851 5852 5853 5854 5855 5857 5857 5858 5858 5858 5859 5859 5859 5860 5860 5861 5861 5861 5861 5862 5862 5862 5862 5862 5861 5861 5860 5859 5859 5858 5856 5855 5854 5853 5851 5850
5795 5795 5795 5796 5797 5798 5799 5800 5800 5801 5801 5802 5802 5802 5803 5805 5806 5806 5807 5808 5811 5814 5816 5818 5819 5821 5822 5824 5826 5828 5830 5832 5834 5835 5836 5837 5838 5839 5840 5841 5843 5844 5845 5845 5846 5847 5847 5848 5849 5849 5850 5851 5852 5853 5854 5855 5856 5856 5856 5856 5856 5857 5857 5858 5858 5859 5859 5859 5860 5860 5860 5860 5860 5859 5859 5858 5858 5857 5856 5855 5854 5853 5852 5850 5849
5792 5792 5793 5794 5794 5795 5796 5797 5797 5797 5798 5798 5798 5799 5800 5802 5803 5803 5804 5806 5808 5811 5813 5815 5816 5818 5819 5821 5823 5825 5827 5828 5830 5831 5833 5834 5835 5836 5837 5838 5840 5841 5842 5843 5844 5845 5845 5846 5846 5847 5848 5848 5849 5850 5851 5852 5853 5853 5853 5854 5854 5854 5855 5855 5856 5856 5857 5857 5857 5858 5858 5857 5857 5857 5857 5856 5856 5855 5855 5854 5853 5852 5850 5849 5848
5788 5789 5790 5791 5792 5793 5793 5794 5794 5794 5795 5796 5796 5797 5798 5800 5801 5801 5802 5803 5806 5808 5810 5812 5813 5815 5816 5818 5820 5822 5823 5825 5826 5828 5829 5830 5832 5833 5834 5835 5837 5838 5839 5840 5841 5842 5843 5843 5844 5845 5845 5846 5847 5847 5848 5849 5850 5850 5851 5851 5852 5852 5853 5853 5853 5854 5854 5854 5855 5855 5855 5855 5855 5855 5855 5854 5854 5853 5853 5852 5851 5850 5849 5848 5847
5785 5786 5787 5788 5789 5790 5790 5790 5790 5791 5792 5794 5795 5795 5796 5798 5799 5800 5801 5802 5804 5806 5807 5808 5810 5811 5813 5815 5816 5818 5820 5821 5823 5824 5825 5827 5828 5830 5831 5832 5834 5835 5836 5837 5838 5839 5840 5841 5841 5842 5842 5843 5844 5845 5845 5846 5846 5847 5848 5848 5849 5850 5850 5850 5851 5851 5851 5852 5852 5852 5852 5852 5853 5852 5852 5852 5852 5851 5851 5850 5850 5849 5848 5847 5846
5782 5783 5784 5784 5785 5787 5787 5787 5787 5787 5788 5790 5792 5793 5794 5795 5797 5798 5799 5800 5801 5803 5805 5805 5806 5808 5811 5812 5813 5815 5816 5818 5819 5820 5821 5822 5824 5826 5828 5829 5830 5831 5833 5834 5835 5836 5837 5838 5838 5839 5839 5840 5841 5841 5842 5843 5843 5844 5845 5845 5846 5847 5847 5847 5847 5848 5848 5848 5849 5850 5850 5850 5850 5850 5850 5850 5849 5849 5849 5848 5848 5847 5846 5845 5844
5779 5780 5781 5781 5782 5783 5784 5784 5784 5785 5785 5786 5789 5790 5792 5793 5794 5795 5796 5798 5798 5800 5802 5803 5804 5806 5808 5810 5811 5811 5813 5814 5816 5816 5817 5819 5820 5822 5823 5825 5826 5827 5829 5831 5832 5832 5833 5834 5835 5835 5836 5837 5838 5838 5839 5840 5840 5841 5841 5842 5843 5843 5844 5844 5844 5845 5845 5845 5845 5846 5847 5847 5847 5847 5847 5847 5847 5847 5846 5846 5845 5845 5844 5843 5842
5776 5777 5778 5779 5779 5780 5780 5781 5781 5782 5782 5783 5785 5787 5789 5790 5791 5791 5793 5795 5796 5797 5799 5801 5802 5804 5806 5808 5808 5809 5810 5811 5811 5812 5813 5815 5817 5817 5819 5821 5822 5823 5825 5827 5828 5829 5829 5830 5831 5831 5832 5833 5834 5835 5836 5836 5837 5838 5838 5839 5840 5840 5840 5841 5841 5841 5842 5842 5842 5843 5843 5844 5844 5844 5844 5844 5844 5844 5844 5843 5843 5842 5842 5841 5840
5773 5774 5774 5775 5777 5777 5778 5778 5779 5779 5779 5780 5781 5783 5785 5787 5788 5789 5790 5791 5793 5794 5796 5798 5800 5801 5802 5804 5805 5806 5808 5807 5807 5808 5809 5811 5813 5814 5815 5816 5818 5819 5821 5823 5824 5825 5826 5826 5827 5828 5828 5829 5830 5831 5832 5833 5833 5834 5835 5836 5836 5837 5837 5837 5838 5838 5839 5839 5839 5839 5840 5841 5841 5841 5841 5841 5841 5841 5841 5840 5840 5840 5839 5839 5838
5770 5771 5771 5772 5773 5775 5775 5776 5776 5777 5777 5777 5778 5779 5781 5783 5784 5786 5787 5788 5789 5791 5793 5794 5796 5796 5797 5800 5800 5801 5803 5803 5804 5805 5805 5806 5808 5810 5811 5812 5813 5815 5817 5818 5819 5821 5822 5822 5823 5824 5824 5825 5826 5827 5828 5828 5829 5830 5831 5832 5833 5833 5833 5834 5834 5834 5835 5836 5836 5836 5836 5837 5837 5838 5838 5838 5838 5838 5838 5837 5837 5837 5836 5836 5835
5767 5768 5768 5769 5770 5771 5772 5774 5774 5775 5775 5776 5776 5777 5778 5779 5780 5782 5783 5784 5786 5787 5788 5789 5791 5792 5792 5795 5796 5796 5798 5799 5800 5801 5802 5803 5804 5805 5807 5808 5809 5811 5813 5814 5815 5816 5817 5818 5819 5819 5821 5822 5823 5823 5824 5824 5825 5826 5827 5828 5828 5829 5829 5830 5830 5830 5831 5832 5833 5833 5832 5833 5834 5834 5834 5834 5834 5834 5834 5834 5834 5834 5833 5833 5832
5763 5764 5765 5766 5767 5768 5769 5770 5771 5772 5773 5773 5774 5774 5775 5776 5777 5778 5779 5780 5781 5783 5784 5784 5786 5787 5788 5789 5791 5791 5793 5794 5795 5796 5798 5800 5801 5801 5802 5803 5805 5807 5808 5809 5810 5811 5813 5814 5815 5816 5817 5818 5818 5819 5819 5820 5821 5821 5822 5823 5824 5825 5825 5826 5826 5827 5827 5828 5829 5829 5829 5830 5830 5830 5830 5831 5831 5831 5831 5831 5831 5830 5830 5830 5829
5760 5761 5762 5763 5764 5764 5765 5766 5768 5769 5770 5770 5771 5771 5772 5773 5773 5774 5775 5776 5777 5778 5779 5780 5781 5782 5783 5784 5786 5787 5788 5789 5790 5791 5793 5795 5796 5797 5798 5799 5800 5802 5804 5804 5806 5807 5809 5810 5812 5813 5814 5814 5815 5815 5816 5816 5817 5817 5817 5818 5819 5820 5820 5821 5822 5823 5823 5824 5825 5825 5826 5827 5827 5827 5827 5827 5827 5827 5827 5827 5827 5827 5827 5826 5826
5756 5757 5758 5759 5760 5761 5762 5763 5764 5765 5766 5767 5767 5768 5768 5769 5770 5771 5771 5772 5773 5774 5775 5775 5776 5778 5779 5779 5781 5782 5784 5785 5786 5787 5788 5789 5791 5792 5793 5794 5795 5797 5798 5800 5801 5803 5805 5806 5808 5809 5810 5811 5811 5812 5812 5813 5813 5813 5813 5813 5814 5815 5816 5817 5817 5818 5819 5819 5820 5821 5822 5823 5823 5823 5824 5824 5824 5824 5824 5824 5824 5823 5823 5823 5823
5752 5753 5754 5755 5756 5757 5759 5760 5761 5762 5762 5763 5764 5764 5765 5766 5766 5767 5768 5768 5769 5770 5771 5771 5772 5773 5774 5775 5776 5778 5779 5781 5782 5782 5783 5783 5785 5786 5787 5788 5790 5792 5793 5794 5796 5798 5800 5802 5804 5805 5806 5807 5808 5808 5809 5810 5810 5809 5808 5808 5810 5811 5811 5812 5813 5813 5814 5815 5816 5816 5818 5819 5819 5820 5820 5821 5820 5820 5821 5821 5820 5820 5820 5819 5819
5749 5749 5750 5751 5752 5753 5755 5756 5757 5758 5759 5760 5760 5761 5761 5762 5763 5763 5764 5765 5765 5766 5767 5768 5768 5769 5770 5771 5772 5773 5774 5776 5777 5777 5778 5778 5779 5780 5782 5783 5784 5787 5788 5789 5791 5793 5795 5797 5799 5800 5801 5802 5803 5804 5805 5806 5806 5805 5805 5805 5806 5807 5807 5808 5808 5808 5810 5811 5811 5812 5814 5815 5815 5816 5816 5817 5817 5817 5817 5817 5817 5816 5816 5815 5815
5747 5747 5748 5748 5749 5750 5751 5752 5753 5754 5755 5756 5757 5757 5758 5758 5759 5760 5760 5761 5762 5762 5763 5764 5764 5765 5766 5767 5768 5769 5769 5770 5772 5772 5773 5774 5774 5775 5778 5778 5778 5782 5783 5783 5786 5788 5790 5793 5793 5794 5795 5796 5797 5799 5800 5801 5801 5801 5801 5801 5802 5803 5803 5803 5803 5804 5805 5806 5807 5808 5809 5810 5811 5812 5812 5813 5813 5813 5813 5813 5813 5812 5812 5812 5812
5745 5745 5746 5746 5746 5747 5747 5748 5749 5750 5751 5752 5753 5754 5754 5754 5755 5755 5756 5757 5758 5758 5759 5760 5760 5761 5762 5762 5763 5764 5765 5765 5766 5767 5767 5768 5769 5770 5772 5772 5773 5776 5777 5777 5780 5782 5785 5788 5788 5788 5790 5791 5792 5793 5794 5795 5796 5796 5796 5796 5798 5799 5799 5799 5799 5800 5801 5801 5802 5804 5805 5805 5806 5807 5808 5808 5808 5809 5809 5809 5809 5808 5808 5808 5807
5742 5742 5743 5743 5744 5744 5744 5745 5745 5746 5747 5748 5749 5750 5750 5750 5751 5751 5752 5753 5753 5754 5755 5756 5756 5757 5757 5758 5758 5759 5760 5760 5760 5761 5762 5763 5763 5765 5766 5766 5767 5770 5771 5772 5773 5776 5780 5782 5782 5783 5785 5786 5787 5788 5789 5789 5789 5790 5791 5791 5793 5793 5794 5794 5794 5795 5796 5797 5798 5800 5801 5801 5802 5803 5804 5804 5804 5805 5805 5805 5805 5804 5804 5804 5803
5738 5739 5739 5740 5740 5741 5741 5742 5742 5743 5743 5744 5745 5745 5746 5746 5747 5747 5748 5748 5749 5750 5750 5751 5752 5752 5753 5753 5754 5754 5754 5755 5755 5756 5757 5757 5758 5759 5760 5761 5761 5763 5765 5766 5766 5770 5774 5774 5775 5777 5778 5779 5781 5782 5782 5783 5784 5784 5786 5787 5787 5787 5788 5789 5789 5790 5792 5793 5794 5795 5796 5797 5798 5799 5799 5799 5800 5800 5801 5801 5801 5800 5800 5799 5799
5735 5736 5736 5736 5737 5737 5738 5738 5738 5739 5740 5740 5741 5741 5741 5742 5742 5743 5743 5744 5744 5745 5746 5746 5747 5747 5748 5748 5749 5749 5749 5750 5750 5750 5751 5752 5753 5754 5754 5755 5755 5756 5758 5760 5761 5764 5767 5767 5768 5771 5771 5772 5774 5775 5776 5778 5779 5779 5780 5782 5782 5782 5782 5782 5783 5785 5786 5788 5789 5790 5792 5792 5793 5794 5795 5795 5796 5796 5797 5797 5797 5797 5796 5796 5795
5731 5732 5732 5732 5733 5733 5733 5734 5734 5734 5735 5736 5736 5737 5737 5737 5738 5738 5739 5739 5739 5740 5740 5741 5741 5742 5742 5743 5743 5743 5744 5744 5745 5745 5745 5746 5746 5747 5748 5749 5749 5750 5751 5753 5755 5758 5760 5760 5762 5764 5765 5765 5766 5769 5770 5772 5773 5774 5775 5777 5778 5777 5776 5777 5778 5779 5780 5782 5784 5785 5786 5787 5789 5790 5790 5790 5791 5792 5792 5792 5793 5793 5792 5792 5791
5726 5727 5727 5728 5728 5728 5729 5729 5729 5730 5730 5731 5731 5731 5731 5732 5732 5733 5734 5734 5734 5735 5735 5735 5736 5736 5737 5737 5737 5738 5738 5739 5739 5739 5739 5740 5740 5740 5741 5742 5743 5744 5744 5745 5748 5751 5753 5754 5755 5757 5757 5758 5759 5761 5764 5767 5768 5768 5770 5772 5773 5771 5771 5772 5773 5774 5775 5776 5778 5779 5780 5782 5783 5784 5785 5785 5786 5787 5788 5788 5788 5788 5788 5788 5787
5721 5722 5722 5723 5723 5723 5724 5724 5724 5725 5725 5725 5726 5726 5726 5726 5727 5727 5728 5729 5729 5729 5730 5730 5731 5731 5731 5731 5731 5731 5732 5733 5733 5733 5733 5733 5733 5734 5734 5735 5737 5737 5738 5739 5741 5745 5747 5747 5748 5749 5750 5751 5752 5754 5758 5761 5762 5762 5764 5767 5768 5766 5766 5768 5768 5769 5770 5771 5772 5773 5775 5776 5777 5778 5779 5780 5781 5782 5782 5783 5783 5783 5783 5783 5783
5716 5717 5717 5717 5718 5718 5718 5718 5719 5719 5719 5720 5720 5720 5720 5720 5721 5721 5722 5723 5723 5724 5724 5724 5725 5726 5726 5726 5725 5724 5725 5726 5727 5727 5727 5727 5727 5727 5727 5728 5729 5730 5731 5731 5732 5737 5741 5741 5740 5742 5742 5743 5745 5747 5750 5753 5755 5756 5758 5760 5761 5760 5760 5762 5763 5764 5766 5766 5767 5768 5769 5770 5771 5772 5773 5774 5774 5776 5776 5777 5777 5778 5778 5778 5778
5711 5712 5712 5712 5712 5712 5713 5713 5713 5713 5713 5713 5713 5714 5714 5714 5715 5715 5716 5716 5717 5717 5718 5718 5718 5719 5720 5720 5720 5718 5719 5719 5720 5720 5721 5721 5721 5721 5721 5721 5722 5723 5723 5724 5725 5728 5733 5735 5733 5734 5735 5734 5737 5740 5743 5745 5747 5749 5751 5753 5755 5755 5755 5755 5757 5758 5760 5761 5762 5762 5763 5765 5766 5766 5767 5767 5768 5769 5770 5771 5772 5772 5773 5773 5773
5707 5707 5707 5707 5707 5707 5707 5707 5707 5707 5707 5707 5707 5707 5707 5708 5708 5708 5709 5709 5710 5710 5711 5711 5711 5712 5713 5713 5713 5713 5713 5713 5713 5712 5713 5714 5714 5715 5715 5715 5715 5716 5716 5717 5717 5719 5724 5728 5727 5727 5727 5727 5729 5732 5734 5737 5739 5740 5743 5746 5748 5750 5750 5749 5750 5752 5754 5756 5756 5756 5757 5758 5759 5760 5760 5760 5761 5762 5764 5765 5766 5766 5767 5767 5768
5702 5702 5702 5702 5702 5702 5701 5701 5701 5701 5701 5701 5701 5701 5701 5701 5701 5701 5702 5702 5702 5703 5703 5704 5704 5704 5705 5705 5706 5706 5707 5707 5706 5705 5705 5706 5706 5707 5708 5708 5709 5710 5710 5709 5710 5711 5714 5719 5721 5720 5721 5721 5722 5724 5726 5728 5731 5733 5736 5739 5741 5742 5744 5744 5745 5747 5749 5750 5751 5751 5751 5752 5753 5754 5754 5754 5754 5756 5757 5758 5759 5760 5761 5761 5762
5697 5697 5697 5696 5696 5696 5696 5696 5696 5695 5695 5695 5695 5695 5695 5695 5695 5695 5695 5695 5695 5695 5695 5696 5696 5697 5697 5697 5697 5698 5699 5700 5700 5699 5698 5698 5698 5699 5700 5701 5701 5702 5703 5703 5703 5703 5705 5709 5713 5714 5714 5715 5715 5717 5718 5721 5723 5726 5729 5732 5734 5735 5737 5738 5739 5742 5743 5744 5745 5746 5747 5748 5748 5748 5749 5749 5749 5750 5751 5752 5753 5754 5755 5755 5756
5692 5692 5691 5691 5691 5691 5691 5690 5690 5690 5689 5689 5689 5688 5688 5688 5688 5688 5688 5688 5688 5688 5688 5688 5688 5688 5689 5689 5690 5689 5690 5691 5692 5692 5691 5691 5691 5692 5692 5693 5694 5694 5696 5697 5697 5697 5698 5700 5705 5707 5708 5708 5709 5710 5712 5713 5715 5718 5721 5724 5726 5728 5730 5732 5734 5736 5737 5737 5738 5740 5742 5743 5744 5744 5745 5744 5744 5745 5745 5746 5747 5748 5749 5749 5750
5686 5686 5686 5686 5686 5686 5685 5685 5684 5684 5683 5683 5683 5682 5682 5681 5681 5680 5681 5681 5681 5681 5681 5681 5680 5680 5681 5681 5681 5682 5682 5682 5683 5684 5684 5684 5684 5684 5684 5685 5686 5686 5688 5689 5689 5690 5691 5692 5696 5699 5701 5702 5702 5704 5705 5706 5707 5711 5713 5716 5720 5722 5724 5726 5727 5728 5728 5728 5730 5733 5735 5737 5738 5740 5740 5740 5740 5740 5741 5741 5742 5742 5743 5744 5744
5681 5681 5681 5681 5681 5680 5680 5680 5679 5679 5678 5677 5677 5676 5676 5675 5674 5674 5674 5673 5673 5673 5673 5673 5673 5673 5673 5673 5673 5673 5673 5674 5674 5675 5675 5676 5677 5677 5677 5677 5678 5679 5680 5681 5682 5683 5684 5685 5687 5690 5693 5694 5695 5696 5697 5698 5700 5703 5706 5710 5713 5715 5716 5717 5718 5719 5720 5721 5723 5726 5729 5731 5733 5734 5735 5735 5736 5736 5736 5737 5737 5738 5738 5738 5739
5676 5676 5676 5675 5675 5675 5675 5675 5674 5674 5673 5672 5671 5671 5670 5669 5669 5668 5667 5667 5666 5666 5666 5665 5665 5665 5665 5665 5665 5665 5665 5665 5665 5666 5666 5667 5668 5670 5670 5669 5670 5672 5673 5674 5674 5675 5676 5677 5680 5682 5684 5686 5687 5689 5690 5691 5693 5695 5698 5701 5704 5707 5709 5710 5711 5712 5713 5714 5716 5719 5722 5725 5727 5728 5729 5730 5731 5731 5732 5732 5733 5733 5733 5733 5734
5670 5670 5670 5670 5670 5670 5670 5669 5669 5668 5668 5667 5666 5665 5664 5663 5663 5662 5661 5660 5659 5659 5659 5658 5658 5657 5657 5657 5657 5656 5656 5656 5657 5657 5657 5657 5658 5660 5662 5662 5662 5663 5665 5666 5667 5668 5668 5670 5672 5674 5676 5678 5680 5681 5682 5684 5686 5688 5690 5692 5696 5699 5702 5703 5705 5707 5708 5709 5711 5713 5715 5717 5720 5721 5722 5723 5725 5726 5727 5728 5728 5728 5729 5729 5730
5665 5665 5664 5664 5665 5665 5665 5664 5664 5663 5662 5661 5660 5659 5657 5656 5655 5655 5654 5654 5652 5652 5651 5651 5651 5650 5649 5649 5648 5648 5648 5648 5648 5648 5648 5648 5649 5650 5652 5654 5654 5655 5656 5658 5660 5660 5661 5662 5665 5666 5668 5671 5673 5674 5674 5676 5678 5681 5683 5685 5688 5692 5694 5696 5699 5702 5704 5705 5706 5707 5708 5710 5712 5713 5715 5717 5719 5721 5722 5722 5722 5722 5723 5724 5724
5659 5659 5659 5659 5659 5659 5659 5659 5658 5657 5657 5655 5654 5653 5651 5650 5648 5647 5647 5646 5645 5644 5643 5642 5642 5642 5641 5641 5640 5640 5640 5639 5639 5639 5639 5639 5640 5640 5642 5644 5646 5647 5648 5649 5651 5652 5653 5654 5657 5659 5661 5663 5666 5667 5668 5669 5671 5673 5676 5678 5680 5684 5686 5688 5692 5695 5698 5700 5699 5699 5700 5702 5704 5707 5709 5712 5714 5716 5716 5717 5717 5717 5717 5718 5719
5653 5653 5653 5653 5653 5653 5653 5653 5652 5652 5651 5649 5648 5646 5645 5643 5642 5640 5639 5637 5636 5635 5634 5633 5632 5632 5632 5632 5631 5631 5631 5630 5630 5629 5629 5630 5630 5631 5632 5634 5636 5638 5639 5640 5642 5644 5645 5646 5648 5652 5653 5654 5658 5660 5661 5661 5663 5666 5668 5670 5673 5676 5679 5681 5684 5687 5691 5693 5692 5692 5693 5696 5698 5700 5703 5706 5707 5709 5711 5711 5711 5711 5711 5712 5713
5647 5647 5647 5648 5647 5648 5648 5647 5647 5646 5644 5643 5641 5640 5638 5637 5634 5632 5631 5629 5627 5626 5625 5623 5622 5622 5622 5621 5622 5622 5621 5621 5621 5620 5620 5620 5620 5621 5622 5624 5626 5628 5630 5631 5633 5634 5636 5637 5640 5644 5646 5646 5649 5653 5653 5653 5655 5658 5661 5663 5665 5668 5672 5674 5676 5680 5684 5686 5685 5685 5688 5691 5692 5694 5697 5699 5701 5704 5705 5704 5704 5705 5706 5707 5708
5642 5642 5642 5642 5642 5642 5641 5641 5640 5640 5638 5636 5634 5632 5631 5629 5627 5625 5622 5620 5619 5617 5616 5614 5612 5612 5611 5611 5611 5612 5611 5611 5611 5610 5610 5610 5610 5611 5613 5614 5616 5618 5620 5623 5623 5623 5626 5628 5631 5635 5638 5639 5641 5645 5646 5646 5648 5651 5653 5655 5658 5660 5664 5667 5670 5674 5677 5677 5677 5679 5683 5686 5687 5688 5691 5692 5694 5697 5698 5698 5698 5699 5700 5702 5702
5636 5636 5636 5636 5636 5635 5635 5635 5634 5633 5631 5629 5627 5625 5623 5620 5618 5616 5614 5612 5610 5608 5607 5605 5603 5602 5601 5600 5600 5601 5601 5601 5601 5600 5599 5599 5600 5601 5603 5604 5606 5608 5611 5613 5613 5613 5616 5619 5622 5626 5629 5632 5633 5636 5638 5639 5641 5643 5645 5647 5650 5653 5657 5661 5664 5668 5671 5671 5672 5674 5676 5679 5680 5682 5684 5686 5689 5691 5692 5692 5694 5694 5695 5696 5696
5631 5630 5630 5630 5629 5629 5629 5628 5627 5626 5624 5622 5619 5617 5615 5612 5610 5607 5605 5603 5601 5599 5598 5595 5593 5592 5591 5590 5590 5589 5590 5590 5589 5589 5589 5588 5589 5591 5592 5594 5596 5598 5602 5603 5602 5604 5606 5608 5612 5617 5620 5623 5625 5627 5630 5632 5634 5635 5636 5639 5644 5648 5651 5654 5658 5662 5665 5667 5668 5668 5670 5673 5676 5677 5679 5681 5683 5685 5686 5688 5689 5689 5689 5690 5691
5625 5625 5624 5624 5623 5623 5622 5621 5620 5619 5617 5614 5611 5609 5606 5603 5600 5598 5596 5594 5592 5590 5588 5586 5584 5583 5582 5581 5579 5579 5579 5578 5577 5578 5578 5577 5579 5580 5582 5584 5585 5589 5592 5592 5592 5595 5596 5598 5602 5607 5610 5614 5617 5619 5622 5624 5626 5627 5628 5633 5638 5641 5644 5647 5651 5654 5657 5660 5662 5663 5665 5668 5671 5672 5674 5675 5677 5679 5681 5683 5684 5683 5683 5684 5686
5619 5619 5618 5618 5617 5617 5616 5614 5613 5611 5609 5606 5603 5600 5597 5594 5591 5588 5586 5584 5582 5580 5579 5577 5576 5574 5573 5571 5570 5568 5567 5567 5566 5566 5566 5566 5568 5570 5572 5573 5576 5580 5582 5581 5583 5586 5586 5588 5592 5596 5600 5604 5608 5611 5614 5616 5618 5620 5622 5626 5631 5634 5637 5641 5644 5646 5649 5654 5657 5658 5659 5662 5664 5665 5668 5669 5671 5673 5675 5676 5677 5677 5677 5679 5681